GW0870 Weather Reports


Display with metric or nautical units.
time (UTC)temp
F
wind
direction
speed
MPH
gust
MPH
rain 1hr
in
rain 24hr
in
rain mn
in
humidity
%
barometer
mb
20260903230057 93 0 0.0 1.0 0.00 0.00 0.00 60 1015.7
20260903224603 94 0 0.0 1.0 0.00 0.00 0.00 55 1015.7
20260903223058 95 0 0.0 3.0 0.00 0.00 0.00 52 1015.6
20260903221555 96 0 0.0 1.0 0.00 0.00 0.00 53 1015.8
20260903214553 95 0 0.0 2.0 0.00 0.00 0.00 56 1015.8
20260903213110 96 0 0.0 2.0 0.00 0.00 0.00 52 1015.9
20260903211556 96 206 0.0 4.0 0.00 0.00 0.00 52 1016.0
20260903210058 94 32 1.0 4.0 0.00 0.00 0.00 54 1016.1
20260903204600 94 0 0.0 2.0 0.00 0.00 0.00 54 1016.1
20260903203058 94 0 0.0 3.0 0.00 0.00 0.00 52 1016.2
20260903201554 96 0 0.0 2.0 0.00 0.00 0.00 48 1016.2
20260903200056 98 0 0.0 6.0 0.00 0.00 0.00 46 1016.3
20260903194601 98 118 1.0 3.0 0.00 0.00 0.00 45 1016.5
20260903193057 98 228 0.0 3.0 0.00 0.00 0.00 45 1016.7
20260903191554 99 120 1.0 4.0 0.00 0.00 0.00 45 1016.9
20260903190054 98 102 1.0 6.0 0.00 0.00 0.00 49 1017.0
20260903184552 97 148 0.0 1.0 0.00 0.00 0.00 46 1017.1
20260903183052 97 165 0.0 3.0 0.00 0.00 0.00 49 1017.3
20260903181556 99 53 1.0 3.0 0.00 0.00 0.00 48 1017.5
20260903180109 96 0 1.0 4.0 0.00 0.00 0.00 53 1017.5
20260903174555 95 0 0.0 1.0 0.00 0.00 0.00 58 1017.8
20260903173052 95 0 0.0 3.0 0.00 0.00 0.00 51 1018.0
20260903171558 98 33 0.0 5.0 0.00 0.00 0.00 51 1018.1
20260903170058 96 244 0.0 6.0 0.00 0.00 0.00 55 1018.4
20260903164604 96 104 0.0 1.0 0.00 0.00 0.00 55 1018.4
20260903163114 95 233 1.0 3.0 0.00 0.00 0.00 53 1018.7
20260903161558 96 329 0.0 2.0 0.00 0.00 0.00 55 1018.7
20260903160053 94 163 0.0 2.0 0.00 0.00 0.00 55 1018.8
20260903154550 94 155 0.0 2.0 0.00 0.00 0.00 60 1018.9
20260903153103 94 0 0.0 1.0 0.00 0.00 0.00 60 1018.9
20260903151602 93 0 0.0 1.0 0.00 0.00 0.00 63 1019.0
20260903150055 91 21 0.0 1.0 0.00 0.00 0.00 65 1018.9
20260903144559 90 0 0.0 2.0 0.00 0.00 0.00 69 1018.8
20260903143057 89 54 0.0 2.0 0.00 0.00 0.00 68 1018.9
20260903141553 88 0 0.0 1.0 0.00 0.00 0.00 72 1018.8
20260903140057 87 0 0.0 1.0 0.00 0.00 0.00 74 1018.8
20260903134612 86 0 0.0 1.0 0.00 0.00 0.00 77 1018.8
20260903133058 84 0 0.0 1.0 0.00 0.00 0.00 80 1018.8
20260903131557 82 0 0.0 1.0 0.00 0.00 0.00 86 1018.8
20260903124606 75 0 0.0 0.0 0.00 0.00 0.00 95 1019.0
20260903123053 74 0 0.0 0.0 0.00 0.00 0.00 95 1019.0
20260903121557 73 0 0.0 0.0 0.00 0.00 0.00 95 1018.9
20260903120117 72 0 0.0 0.0 0.00 0.00 0.00 95 1018.8
20260903114602 72 0 0.0 0.0 0.00 0.00 0.00 95 1018.8
20260903113053 71 0 0.0 0.0 0.00 0.00 0.00 94 1018.6
20260903111553 71 0 0.0 0.0 0.00 0.00 0.00 94 1018.6
20260903110103 71 0 0.0 0.0 0.00 0.00 0.00 94 1018.4
20260903104553 71 0 0.0 0.0 0.00 0.00 0.00 94 1018.2
20260903103056 71 0 0.0 0.0 0.00 0.00 0.00 94 1018.1
20260903101551 71 0 0.0 0.0 0.00 0.00 0.00 94 1018.0
20260903100052 71 0 0.0 0.0 0.00 0.00 0.00 94 1017.9
20260903094552 72 0 0.0 0.0 0.00 0.00 0.00 94 1017.9
20260903093056 72 0 0.0 0.0 0.00 0.00 0.00 94 1017.8
20260903091553 72 0 0.0 0.0 0.00 0.00 0.00 94 1017.9
20260903084554 72 0 0.0 1.0 0.00 0.00 0.00 94 1017.7
20260903083056 72 0 0.0 0.0 0.00 0.00 0.00 93 1017.7
20260903081550 73 0 0.0 0.0 0.00 0.00 0.00 93 1017.7
20260903074618 73 0 0.0 0.0 0.00 0.00 0.00 93 1017.4
20260903073059 73 0 0.0 0.0 0.00 0.00 0.00 93 1017.4
20260903071605 73 0 0.0 0.0 0.00 0.00 0.00 93 1017.3
20260903070057 73 0 0.0 0.0 0.00 0.00 0.00 93 1017.3
20260903064552 73 0 0.0 0.0 0.00 0.00 0.00 93 1017.2
20260903063105 74 0 0.0 0.0 0.00 0.00 0.00 93 1017.1
20260903061604 74 0 0.0 0.0 0.00 0.00 0.00 93 1017.3
20260903060100 74 0 0.0 0.0 0.00 0.00 0.00 93 1017.4
20260903054602 74 0 0.0 0.0 0.00 0.00 0.00 92 1017.3
20260903053101 75 0 0.0 0.0 0.00 0.00 0.00 92 1017.3
20260903051600 75 0 0.0 0.0 0.00 0.00 0.00 92 1017.3
20260903044603 75 0 0.0 0.0 0.00 0.00 0.00 92 1017.5
20260903043048 75 0 0.0 1.0 0.00 0.00 0.00 92 1017.5
20260903041610 75 0 0.0 0.0 0.00 0.00 0.00 92 1017.4
20260903040056 75 0 0.0 0.0 0.00 0.00 0.00 92 1017.5
20260903034551 76 0 0.0 0.0 0.00 0.00 0.00 91 1017.5
20260903033057 76 0 0.0 0.0 0.00 0.00 0.00 91 1017.9
20260903031556 76 0 0.0 0.0 0.00 0.00 0.00 90 1018.1
20260903030054 76 0 0.0 0.0 0.00 0.00 0.00 90 1018.2
20260903024600 77 0 0.0 0.0 0.00 0.00 0.00 90 1018.2
20260903023057 77 0 0.0 0.0 0.00 0.00 0.00 89 1018.5
20260903021555 77 0 0.0 0.0 0.00 0.00 0.00 88 1018.5
20260903020055 78 0 0.0 0.0 0.00 0.00 0.00 88 1018.5
20260903014613 78 0 0.0 0.0 0.00 0.00 0.00 87 1018.3
20260903013102 79 0 0.0 0.0 0.00 0.00 0.00 86 1018.0
20260903011614 80 0 0.0 0.0 0.00 0.00 0.00 85 1017.8
20260903010108 80 0 0.0 0.0 0.00 0.00 0.00 85 1017.6
20260903004550 81 0 0.0 0.0 0.00 0.00 0.00 83 1017.5
20260903003113 82 0 0.0 0.0 0.00 0.00 0.00 81 1017.4
20260903001601 83 0 0.0 0.0 0.00 0.00 0.00 77 1017.4
20260903000052 84 0 0.0 0.0 0.00 0.00 0.00 76 1017.4
20260902234554 86 0 0.0 0.0 0.00 0.00 0.00 72 1017.3
20260902233054 88 0 0.0 0.0 0.00 0.00 0.00 69 1017.3
20260902231552 90 0 0.0 0.0 0.00 0.00 0.00 65 1017.3